Powrót do katalogu

STARLINK-5965

AktywnyŁącznośćVLEO
NORAD 56915·PAYLOAD·🇺🇸 United States

Wystrzelony Jun 12, 2023 z Cape Canaveral Space Force Station

Loading…

Następne Przeloty (najbliższe 24 godziny)

TLE

ŚwieżeSource: CelesTrak SupGP

Epoka: Sep 14, 2026, 13:25 UTC

1 56915C 23083AR  26257.55951389  .00003790  00000+0  13728-3 0  2578
2 56915  43.0010  84.0054 0001207 255.4413 109.6237 15.27576030    16

Śledź STARLINK-5965 w czasie rzeczywistym z AllMySat

Download on the App Store